This is the latest recevied weather packets stored in our database for station/object WC4PEM-10. If no packets are shown the sender has not sent any weather packets the latest 10 day(s).
| Time | Temp. | Humidity | Pressure | Rain* | Wind** | Luminosity | Snow |
|---|---|---|---|---|---|---|---|
| 1777573971 | 32.22° C | 45% | 1010.8 hPa | 0 mm | - | - | - |
| 1777573903 | 32.22° C | 45% | 1010.8 hPa | 0 mm | - | - | - |
| 1777573777 | 31.67° C | 46% | 1010.6 hPa | 0 mm | - | - | - |
| 1777573603 | 31.67° C | 46% | 1010.6 hPa | 0 mm | - | - | - |
| 1777573452 | 31.67° C | 46% | 1010.5 hPa | 0 mm | - | - | - |
| 1777573306 | 31.67° C | 47% | 1010.5 hPa | 0 mm | - | - | - |
| 1777573303 | 31.67° C | 46% | 1010.5 hPa | 0 mm | - | - | - |
| 1777573003 | 31.67° C | 47% | 1010.5 hPa | 0 mm | - | - | - |
| 1777572703 | 31.11° C | 51% | 1010.5 hPa | 0 mm | - | - | - |
| 1777572495 | 31.11° C | 53% | 1010.6 hPa | 0 mm | - | - | - |
| 1777572403 | 31.11° C | 53% | 1010.6 hPa | 0 mm | - | - | - |
| 1777572213 | 31.11° C | 53% | 1010.7 hPa | 0 mm | - | - | - |
| 1777572103 | 31.11° C | 53% | 1010.7 hPa | 0 mm | - | - | - |
| 1777571894 | 31.11° C | 55% | 1010.9 hPa | 0 mm | - | - | - |
| 1777571803 | 31.11° C | 55% | 1010.9 hPa | 0 mm | - | - | - |
| 1777571503 | 31.11° C | 55% | 1010.9 hPa | 0 mm | - | - | - |
| 1777571408 | 31.11° C | 54% | 1010.9 hPa | 0 mm | - | - | - |
| 1777571203 | 31.11° C | 54% | 1010.9 hPa | 0 mm | - | - | - |
| 1777571030 | 31.11° C | 54% | 1011 hPa | 0 mm | - | - | - |
| 1777570903 | 31.11° C | 54% | 1011 hPa | 0 mm | - | - | - |
| 1777570811 | 31.11° C | 53% | 1011.2 hPa | 0 mm | - | - | - |
| 1777570603 | 31.11° C | 53% | 1011.2 hPa | 0 mm | - | - | - |
| 1777570442 | 31.11° C | 56% | 1011.3 hPa | 0 mm | - | - | - |
| 1777570303 | 31.11° C | 56% | 1011.3 hPa | 0 mm | - | - | - |
| 1777570093 | 30° C | 58% | 1011.2 hPa | 0 mm | - | - | - |
* Rain latest hour (hover to see other rain measurements)
** Current wind speed in m/s (hover to see current wind gust speed)